This is the latest recevied weather packets stored in our database for station/object M0JUI-1. If no packets are shown the sender has not sent any weather packets the latest 10 day(s).
| Time | Temp. | Humidity | Pressure | Rain* | Wind** | Luminosity | Snow |
|---|---|---|---|---|---|---|---|
| 1788037232 | 15° C | 26% | 1004 hPa | 0.25 mm | - | 0 W/m² | - |
| 1788036921 | 15° C | 26% | 1003.8 hPa | 0.51 mm | - | 0 W/m² | - |
| 1788036620 | 15° C | 26% | 1003.9 hPa | 0.51 mm | - | 0 W/m² | - |
| 1788036321 | 15° C | 26% | 1003.7 hPa | 0.51 mm | - | 0 W/m² | - |
| 1788036008 | 15° C | 26% | 1003.8 hPa | 0.76 mm | - | 0 W/m² | - |
| 1788035708 | 15° C | 26% | 1003.7 hPa | 1.02 mm | - | 0 W/m² | - |
| 1788035408 | 15° C | 26% | 1003.6 hPa | 1.52 mm | - | 0 W/m² | - |
| 1788035097 | 15° C | 26% | 1003.7 hPa | 2.03 mm | - | 0 W/m² | - |
| 1788034796 | 15° C | 26% | 1003.5 hPa | 2.03 mm | - | 0 W/m² | - |
| 1788034497 | 15° C | 26% | 1003.6 hPa | 2.29 mm | - | 0 W/m² | - |
| 1788034196 | 15° C | 26% | 1003.2 hPa | 2.29 mm | - | 0 W/m² | - |
| 1788033896 | 15° C | 25% | 1003.3 hPa | 2.29 mm | - | 0 W/m² | - |
| 1788033596 | 15° C | 25% | 1003.2 hPa | 2.29 mm | - | 0 W/m² | - |
| 1788033296 | 15° C | 25% | 1003.1 hPa | 2.29 mm | - | 0 W/m² | - |
| 1788032996 | 15° C | 25% | 1003 hPa | 2.29 mm | - | 0 W/m² | - |
| 1788032697 | 15° C | 25% | 1003 hPa | 2.03 mm | - | 0 W/m² | - |
| 1788032396 | 15° C | 25% | 1002.9 hPa | 1.78 mm | - | 0 W/m² | - |
| 1788032096 | 15° C | 25% | 1002.9 hPa | 1.52 mm | - | 0 W/m² | - |
| 1788031796 | 15° C | 25% | 1002.8 hPa | 1.02 mm | - | 0 W/m² | - |
| 1788031496 | 15° C | 25% | 1002.7 hPa | 0.51 mm | - | 0 W/m² | - |
| 1788031196 | 15° C | 25% | 1002.7 hPa | 0.51 mm | - | 0 W/m² | - |
| 1788030896 | 15° C | 24% | 1002.5 hPa | 0.25 mm | - | 0 W/m² | - |
| 1788030584 | 15° C | 24% | 1002.5 hPa | 0.25 mm | - | 0 W/m² | - |
| 1788030285 | 15° C | 24% | 1002.4 hPa | 0.25 mm | - | 0 W/m² | - |
| 1788029984 | 15° C | 24% | 1002.4 hPa | 0.25 mm | - | 0 W/m² | - |
* Rain latest hour (hover to see other rain measurements)
** Current wind speed in m/s (hover to see current wind gust speed)